Temp
-10 -10 -10 -10 -10 -9 -9 -9 -9 -5 -7 -8 -7 -7 -6 -6 -5 -6 -5 -4 -3 -2 -2 -1 -1 0 1 2 3 2 3 4 4 5 6 7 7 6 6 6 5 6 6 8
-10 -10 -10 -10 -9 -9 -9 -9 -8 -8 -8 -8 -7 -7 -6 -6 -7 -6 -5 -5 -4 -1 -1 -1 -0 0 2 2 3 2 2 3 4 4 5 5 5 6 7 6 6 6 3 7
-10 -9 -9 -8 -8 -8 -9 -8 -9 -7 -8 -7 -8 -7 -7 -7 -5 -6 -6 -4 -4 -3 -2 -2 0 0 1 1 3 3 3 3 3 4 5 5 5 5 6 6 5 6 6 8
-9 -8 -7 -7 -7 -8 -8 -7 -7 -7 -7 -7 -7 -7 -6 -5 -7 -6 -4 -5 -4 -3 -3 -2 -1 1 0 1 2 2 2 2 3 3 4 5 6 5 5 5 6 5 6 6
-8 -7 -6 -6 -7 -8 -8 -7 -7 -8 -7 -8 -8 -7 -7 -6 -6 -6 -4 -4 -3 -3 -2 -2 -1 -1 -0 1 1 1 2 2 2 2 2 4 4 5 5 5 5 5 6 6
-6 -6 -6 -6 -6 -8 -7 -7 -7 -8 -8 -8 -8 -7 -5 -4 -6 -6 -5 -3 -4 -4 -2 -2 -1 -1 -1 0 1 1 1 1 2 1 2 1 1 4 4 4 5 5 5 7
-6 -6 -6 -6 -7 -7 -6 -7 -8 -8 -8 -8 -6 -7 -6 -5 -6 -5 -5 -4 -4 -3 -2 -3 -3 -3 -1 -1 -1 -1 0 1 1 1 1 -0 2 3 4 4 5 5 5 5
-6 -6 -6 -6 -7 -7 -7 -7 -7 -7 -8 -7 -7 -7 -6 -6 -6 -7 -6 -6 -4 -3 -4 -2 -3 -2 -1 -1 -1 -1 -1 -1 -1 -1 -1 1 2 2 2 2 4 4 5 5
-7 -6 -6 -7 -8 -7 -8 -8 -7 -7 -8 -8 -7 -6 -6 -7 -7 -8 -7 -6 -6 -6 -5 -4 -3 -2 -2 -1 -1 -1 -1 -1 -1 -1 -1 0 4 3 2 2 2 5 5 5
-8 -8 -8 -8 -7 -7 -8 -8 -7 -7 -8 -8 -7 -7 -7 -8 -7 -6 -6 -6 -6 -7 -6 -6 -3 -2 -2 -1 -1 -1 -1 -1 -2 -2 -1 -0 2 2 3 1 4 6 6 6
-8 -8 -8 -7 -7 -7 -8 -8 -8 -7 -7 -7 -8 -8 -7 -7 -7 -7 -6 -6 -7 -7 -6 -6 -3 -3 -2 -2 -1 -0 -0 -1 -2 -2 -2 -1 2 2 3 5 6 5 6 6
-8 -8 -8 -8 -7 -7 -8 -7 -8 -8 -8 -8 -8 -8 -7 -7 -8 -8 -8 -8 -7 -7 -6 -5 -4 -3 -3 -2 -2 -1 -1 1 0 0 2 2 2 3 3 3 3 4 5 5
-9 -8 -8 -8 -8 -8 -8 -8 -8 -9 -8 -9 -8 -8 -7 -7 -8 -8 -8 -8 -7 -8 -6 -6 -6 -4 -3 -2 -2 -1 -0 0 -0 1 2 2 1 2 2 2 3 3 4 3
-9 -9 -8 -8 -8 -8 -8 -8 -8 -9 -9 -9 -8 -8 -8 -7 -7 -8 -8 -8 -8 -7 -9 -8 -8 -8 -5 -3 -2 -1 -1 -1 -0 0 0 -0 1 2 1 1 2 1 2 3
-9 -9 -8 -8 -8 -8 -8 -8 -8 -8 -9 -9 -8 -7 -8 -7 -7 -7 -7 -8 -8 -8 -9 -9 -8 -8 -7 -4 -3 -2 -2 -1 -0 1 2 2 2 2 0 0 1 0 0 0
-9 -9 -9 -9 -8 -8 -9 -9 -9 -9 -9 -9 -9 -8 -7 -7 -7 -7 -7 -8 -8 -8 -9 -9 -9 -7 -8 -6 -3 -1 -2 -1 -0 1 1 2 2 2 -0 2 1 1 1 1
-10 -10 -10 -9 -9 -9 -9 -9 -9 -9 -9 -10 -10 -9 -7 -7 -7 -7 -7 -8 -8 -8 -8 -9 -8 -7 -7 -6 -4 -2 -1 -1 -1 -1 0 2 2 2 1 2 0 1 1 1
-11 -10 -10 -11 -10 -10 -10 -9 -9 -9 -10 -10 -10 -9 -8 -8 -7 -8 -8 -8 -8 -9 -9 -8 -8 -7 -7 -7 -4 -3 -2 -1 -1 -1 -0 0 1 1 1 -1 -1 -1 0 1
-11 -11 -10 -10 -10 -10 -10 -10 -10 -10 -10 -10 -10 -9 -9 -8 -8 -8 -8 -8 -9 -9 -9 -9 -8 -8 -7 -5 -4 -3 -1 -0 -1 -2 -1 -0 -0 0 -0 -0 -0 -1 -1 -1
-11 -11 -11 -11 -10 -10 -10 -10 -10 -10 -10 -10 -10 -9 -9 -9 -9 -9 -9 -9 -9 -8 -8 -8 -8 -7 -3 -3 -3 -2 -2 -2 -3 -2 -2 -1 -1 -1 -2 -2 -2 -2 -2 -2
-11 -11 -12 -12 -11 -11 -11 -11 -10 -10 -10 -10 -9 -9 -9 -9 -9 -9 -9 -9 -9 -8 -8 -7 -7 -4 -3 -3 -3 -3 -2 -2 -3 -3 -3 -3 -2 -2 -2 -2 -2 -2 -3 -3
-11 -11 -11 -11 -11 -11 -11 -11 -10 -10 -10 -10 -9 -9 -10 -10 -9 -9 -9 -9 -9 -8 -8 -7 -6 -4 -3 -4 -3 -3 -3 -3 -4 -3 -4 -3 -2 -3 -3 -3 -4 -4 -4 -4
-11 -11 -12 -11 -11 -11 -11 -11 -11 -10 -10 -10 -10 -10 -10 -10 -10 -9 -9 -9 -9 -9 -8 -7 -5 -4 -4 -4 -3 -3 -4 -3 -3 -3 -3 -3 -3 -4 -5 -4 -4 -4 -5 -5
-11 -11 -11 -11 -11 -11 -10 -10 -10 -10 -10 -10 -10 -10 -10 -10 -10 -10 -10 -10 -10 -9 -9 -8 -6 -6 -6 -5 -5 -4 -4 -4 -4 -4 -4 -5 -4 -4 -5 -6 -6 -5 -6 -5
-11 -11 -11 -11 -10 -10 -10 -10 -10 -10 -10 -10 -10 -10 -11 -11 -11 -11 -11 -11 -10 -9 -8 -9 -8 -7 -7 -7 -7 -6 -6 -6 -6 -6 -6 -6 -6 -6 -6 -6 -7 -7 -7 -7
-11 -10 -10 -10 -10 -10 -10 -10 -11 -10 -10 -10 -10 -10 -10 -11 -10 -10 -10 -10 -10 -10 -9 -8 -8 -8 -8 -7 -7 -7 -7 -8 -8 -8 -8 -7 -7 -8 -8 -8 -8 -7 -7 -7
-11 -10 -10 -10 -10 -11 -11 -11 -11 -11 -11 -10 -10 -10 -10 -10 -10 -10 -10 -9 -9 -9 -9 -8 -8 -9 -9 -9 -9 -9 -9 -9 -8 -8 -8 -8 -8 -8 -8 -7 -7 -7 -7 -7
Height
2905 2905 2907 2910 2914 2919 2924 2928 2932 2933 2942 2946 2943 2942 2946 2955 2960 2968 2969 2970 2972 2973 2980 2981 2985 2982 2986 2993 3003 3005 3010 3024 3027 3024 3032 3040 3041 3046 3050 3049 3050 3055 3057 3030
2894 2895 2896 2898 2902 2909 2916 2919 2923 2924 2929 2931 2934 2933 2937 2945 2951 2956 2957 2957 2961 2967 2969 2973 2972 2974 2981 2991 2994 2995 3007 3010 3017 3023 3030 3032 3028 3027 3035 3044 3046 3045 3052 3012
2883 2882 2883 2886 2891 2898 2906 2912 2913 2915 2916 2920 2925 2926 2928 2934 2939 2947 2951 2952 2956 2957 2955 2958 2964 2967 2974 2982 2987 2993 2998 2997 3000 3000 3002 3016 3017 3023 3028 3034 3039 3026 3031 3019
2872 2870 2872 2876 2881 2888 2895 2895 2894 2897 2899 2903 2907 2916 2926 2925 2928 2935 2943 2942 2944 2948 2948 2950 2954 2958 2967 2973 2980 2985 2989 2989 2995 2993 3004 3009 3009 3011 3015 3017 3016 3021 3004 3019
2860 2858 2859 2863 2870 2877 2882 2881 2882 2886 2889 2896 2902 2909 2911 2917 2921 2928 2930 2931 2933 2942 2937 2939 2949 2955 2958 2960 2969 2974 2980 2978 2986 2984 2992 2999 3000 3003 3007 3005 3002 3012 3009 3007
2849 2847 2847 2852 2857 2864 2864 2865 2872 2880 2883 2888 2895 2894 2902 2904 2913 2918 2923 2929 2931 2932 2932 2941 2946 2949 2954 2955 2959 2965 2970 2973 2978 2971 2984 2993 2989 2981 2984 2993 2998 2999 3001 2981
2838 2837 2837 2840 2846 2848 2853 2857 2866 2869 2876 2879 2876 2888 2897 2902 2906 2910 2916 2920 2919 2925 2930 2937 2938 2936 2936 2943 2947 2952 2958 2965 2969 2967 2978 2973 2959 2975 2981 2982 2984 2987 2990 2993
2828 2827 2827 2829 2834 2843 2847 2853 2857 2862 2871 2877 2882 2888 2892 2898 2902 2907 2909 2909 2917 2924 2928 2924 2926 2925 2930 2928 2934 2938 2946 2954 2957 2956 2960 2959 2952 2953 2961 2968 2959 2978 2976 2983
2821 2817 2813 2820 2829 2837 2840 2848 2854 2860 2870 2873 2880 2884 2889 2894 2896 2902 2902 2909 2909 2913 2915 2920 2913 2911 2916 2922 2923 2930 2935 2936 2942 2944 2950 2946 2918 2949 2955 2968 2957 2961 2968 2973
2822 2819 2816 2819 2824 2831 2838 2845 2850 2855 2866 2868 2875 2879 2883 2888 2893 2895 2896 2897 2901 2906 2906 2905 2904 2907 2906 2910 2911 2917 2920 2926 2926 2933 2939 2936 2932 2940 2952 2957 2933 2947 2950 2955
2824 2823 2820 2819 2825 2830 2838 2844 2847 2852 2859 2865 2870 2875 2879 2882 2886 2888 2890 2894 2895 2901 2899 2902 2902 2893 2898 2901 2902 2904 2909 2919 2922 2929 2933 2931 2929 2934 2932 2932 2935 2938 2941 2943
2828 2828 2824 2821 2823 2831 2838 2842 2846 2851 2857 2862 2866 2872 2875 2877 2881 2883 2886 2889 2886 2888 2894 2897 2892 2883 2887 2893 2896 2900 2903 2904 2908 2916 2915 2918 2922 2923 2928 2930 2931 2934 2936 2938
2830 2831 2831 2832 2833 2835 2838 2842 2846 2852 2857 2863 2866 2867 2870 2873 2876 2877 2883 2885 2888 2886 2888 2885 2884 2882 2887 2881 2886 2891 2891 2896 2903 2909 2909 2911 2915 2918 2921 2926 2932 2932 2933 2937
2831 2831 2832 2834 2836 2838 2841 2844 2848 2852 2855 2858 2860 2862 2864 2867 2869 2871 2873 2877 2879 2881 2879 2878 2877 2879 2874 2873 2878 2883 2883 2889 2895 2900 2903 2907 2908 2911 2916 2923 2926 2926 2933 2938
2832 2831 2831 2832 2834 2837 2839 2842 2846 2849 2856 2854 2856 2857 2860 2862 2864 2865 2867 2867 2869 2871 2872 2869 2873 2874 2872 2870 2868 2869 2872 2880 2886 2885 2895 2899 2902 2912 2914 2918 2921 2924 2929 2934
2833 2831 2831 2832 2833 2835 2839 2840 2843 2846 2850 2851 2853 2854 2856 2858 2859 2860 2862 2863 2864 2864 2864 2866 2866 2869 2872 2867 2859 2860 2871 2877 2882 2884 2893 2896 2897 2903 2908 2911 2915 2921 2924 2929
2832 2831 2831 2832 2833 2834 2835 2837 2839 2840 2844 2847 2850 2848 2850 2853 2853 2853 2853 2855 2855 2857 2857 2856 2856 2858 2864 2861 2857 2862 2867 2868 2871 2876 2882 2884 2889 2892 2898 2904 2910 2916 2921 2925
2833 2832 2832 2832 2833 2834 2835 2837 2838 2840 2842 2845 2846 2844 2845 2847 2846 2846 2847 2847 2847 2845 2844 2840 2843 2850 2850 2853 2852 2856 2859 2860 2863 2869 2874 2876 2881 2888 2893 2899 2903 2907 2913 2918
2836 2832 2831 2833 2833 2835 2836 2837 2838 2839 2844 2842 2840 2840 2842 2841 2840 2841 2841 2840 2838 2837 2834 2837 2842 2835 2836 2840 2847 2849 2850 2849 2853 2862 2867 2868 2873 2881 2887 2892 2895 2900 2905 2911
2836 2835 2832 2831 2831 2832 2834 2835 2837 2837 2837 2837 2834 2836 2836 2838 2837 2836 2836 2831 2829 2825 2824 2826 2826 2821 2831 2833 2835 2842 2843 2846 2853 2854 2856 2860 2864 2872 2877 2881 2889 2897 2902 2906
2836 2834 2833 2832 2831 2830 2831 2832 2833 2833 2832 2829 2828 2830 2829 2830 2831 2829 2828 2823 2821 2817 2814 2817 2813 2816 2820 2824 2831 2839 2842 2844 2849 2851 2855 2856 2861 2865 2872 2877 2886 2891 2897 2901
2836 2835 2833 2832 2831 2830 2830 2828 2829 2828 2828 2825 2825 2825 2824 2824 2824 2824 2821 2818 2816 2810 2808 2809 2804 2810 2816 2825 2829 2833 2837 2841 2846 2849 2851 2855 2861 2865 2870 2875 2880 2884 2890 2893
2834 2833 2831 2830 2830 2827 2826 2825 2824 2823 2822 2822 2822 2822 2821 2820 2820 2819 2817 2813 2809 2805 2801 2799 2806 2810 2813 2816 2818 2825 2832 2837 2841 2844 2848 2852 2855 2860 2865 2868 2874 2879 2886 2892
2831 2831 2829 2827 2825 2823 2821 2821 2821 2821 2821 2819 2818 2819 2818 2818 2817 2816 2814 2812 2809 2805 2803 2802 2801 2804 2809 2811 2816 2821 2826 2830 2836 2840 2844 2848 2854 2857 2862 2869 2876 2881 2886 2889
2828 2827 2824 2821 2820 2819 2818 2818 2818 2819 2818 2818 2818 2817 2817 2816 2816 2816 2814 2812 2810 2808 2805 2803 2803 2805 2808 2811 2815 2818 2823 2827 2833 2839 2844 2846 2853 2859 2865 2871 2877 2880 2883 2886
2823 2821 2819 2817 2817 2816 2815 2815 2816 2817 2816 2817 2817 2817 2817 2818 2818 2818 2816 2815 2813 2810 2809 2809 2808 2809 2811 2813 2818 2821 2826 2830 2836 2841 2845 2848 2854 2859 2865 2869 2874 2877 2878 2881
2816 2816 2815 2815 2815 2814 2814 2815 2816 2816 2817 2816 2816 2816 2816 2817 2817 2817 2816 2816 2815 2813 2812 2811 2811 2813 2815 2818 2822 2825 2829 2833 2837 2840 2844 2848 2853 2858 2862 2866 2868 2869 2873 2877
Wind_Speed
27 29 32 34 34 32 31 33 35 41 33 42 52 50 63 56 56 40 43 41 38 28 43 49 53 51 65 51 68 68 67 36 28 40 46 50 58 55 53 33 23 35 25 45
27 30 31 31 30 31 31 38 37 41 37 47 50 57 60 57 50 47 39 36 47 62 27 42 52 56 57 47 49 59 60 40 25 24 33 43 55 64 63 51 34 38 13 49
26 28 29 29 31 33 37 40 41 38 42 46 52 46 57 56 57 49 45 36 44 38 49 35 35 58 56 55 37 49 57 52 54 31 49 45 47 55 56 51 38 53 47 63
30 29 27 30 32 35 42 47 42 49 44 53 57 56 56 61 48 45 37 48 34 39 37 39 41 39 45 42 57 32 51 53 55 63 47 33 49 50 56 55 63 50 70 52
29 28 25 32 35 35 45 56 60 56 55 44 54 56 61 51 44 41 45 49 45 43 44 36 22 36 43 41 44 47 51 48 55 54 53 48 28 45 49 60 67 59 62 57
24 27 29 31 35 39 54 62 62 45 52 41 53 62 57 60 48 33 36 40 47 41 59 41 38 27 37 38 44 46 45 49 35 51 48 34 43 55 51 52 62 61 57 78
23 23 29 30 36 42 48 62 62 55 38 44 54 60 60 59 50 52 42 41 32 43 48 43 40 46 36 42 35 48 54 43 44 43 20 21 51 59 65 54 52 62 67 59
20 22 28 31 38 45 48 51 56 64 40 43 44 48 48 53 49 43 52 38 46 24 42 25 35 35 40 40 47 45 35 52 41 22 30 21 42 51 45 53 72 60 56 57
16 15 19 27 37 38 43 49 52 53 47 44 37 38 45 33 28 32 44 52 49 46 31 27 30 22 34 16 25 50 40 27 45 22 15 15 74 42 34 36 52 63 72 66
5 9 6 22 36 37 43 45 46 55 48 31 44 37 36 25 23 25 23 28 44 40 36 26 22 28 23 16 28 22 36 35 35 27 10 17 36 17 20 31 47 31 38 51
3 1 4 15 32 33 37 39 46 52 47 32 33 38 35 26 24 26 26 27 28 31 27 22 25 17 29 18 18 32 30 27 22 27 16 16 16 23 37 36 32 38 29 24
3 3 8 17 36 32 36 50 46 41 38 26 29 31 26 23 18 18 20 20 16 21 20 22 22 8 27 27 25 34 29 34 31 25 28 20 20 22 29 26 17 28 20 19
1 3 6 8 12 29 18 22 26 24 23 23 21 24 27 26 27 25 23 24 24 34 32 25 10 14 23 21 31 27 34 29 30 30 36 34 34 28 30 32 22 17 19 26
1 12 15 17 17 18 18 19 21 23 24 25 20 24 22 23 26 26 24 23 26 31 35 34 26 24 6 16 28 33 28 34 35 39 21 29 29 32 30 30 25 28 22 22
6 6 12 23 24 25 26 26 24 24 24 16 30 23 21 23 24 25 25 25 22 24 29 30 33 34 22 23 23 34 36 38 44 48 39 34 27 21 26 28 28 33 27 22
5 4 7 9 16 25 24 26 29 27 26 28 23 17 19 22 24 26 28 25 26 25 29 26 28 39 28 18 25 34 42 46 43 43 36 29 28 22 26 27 33 31 26 30
5 1 4 4 7 9 17 16 24 24 22 22 17 20 26 23 23 24 29 33 32 30 37 37 33 32 30 31 30 32 21 33 36 40 33 27 25 27 24 27 35 33 26 28
15 5 5 2 3 5 11 11 8 10 18 19 10 14 20 20 23 26 30 31 34 37 36 38 32 29 32 28 30 32 28 29 31 33 32 29 26 25 30 39 39 35 29 32
14 3 10 7 9 7 7 11 11 8 16 10 17 23 16 12 16 23 27 30 31 33 33 38 31 29 20 31 23 15 16 24 30 34 35 31 30 33 42 39 38 33 32 32
7 10 6 4 11 16 14 12 15 15 17 25 18 13 23 25 27 28 26 15 22 15 30 32 35 30 35 34 28 20 16 21 22 26 33 41 41 42 48 38 31 33 30 27
5 3 6 6 7 1 7 6 8 8 8 15 23 24 28 30 28 26 13 8 9 8 15 25 14 27 30 22 24 21 21 20 27 17 20 19 31 28 31 33 33 30 30 30
7 5 6 10 4 2 3 5 6 7 7 7 10 12 15 20 22 16 9 11 7 8 14 14 9 25 29 37 34 25 21 23 19 22 21 25 26 25 26 31 35 35 27 18
9 8 6 5 4 7 5 6 6 6 6 9 10 10 12 11 12 8 7 5 6 4 5 4 15 25 28 25 24 28 29 27 23 28 28 28 28 30 39 40 31 22 21 17
9 8 7 5 6 6 8 10 10 9 8 9 7 8 5 7 7 5 4 5 3 4 1 1 7 16 25 23 23 27 31 31 31 24 19 15 16 18 17 21 22 19 19 20
10 7 6 9 11 12 12 12 12 7 7 5 3 1 2 3 3 2 3 3 3 4 5 3 3 13 18 26 26 19 18 18 14 13 15 16 19 20 20 21 21 22 22 21
14 10 9 11 9 8 7 7 7 5 4 3 2 2 1 0 1 1 1 2 3 4 4 1 4 9 12 12 10 9 9 7 8 14 18 21 23 25 24 24 23 22 20 19
9 13 14 10 8 6 6 6 5 5 6 4 1 1 1 1 1 1 2 3 4 4 5 9 8 7 5 5 6 7 9 11 12 15 17 19 22 22 22 21 19 17 17 18
Wind_Direction
265 258 255 253 247 236 228 220 222 233 219 210 219 223 224 226 228 236 231 234 232 222 220 216 211 220 217 220 219 213 216 220 225 217 221 225 216 209 211 213 208 228 245 253
270 262 255 250 239 231 210 213 221 231 232 215 221 216 227 225 232 228 247 237 226 239 228 218 219 222 228 215 218 214 209 213 216 219 217 221 214 218 219 215 225 225 199 252
287 270 257 242 232 216 198 213 217 224 229 229 223 218 223 221 231 234 237 249 233 232 239 208 222 226 231 220 224 221 216 213 216 219 218 210 212 217 218 217 220 231 225 242
292 270 248 229 216 205 199 216 216 220 216 227 225 228 224 226 224 229 233 236 225 237 244 240 219 228 222 226 215 216 213 217 222 226 227 224 222 219 218 217 224 223 237 240
293 267 248 226 211 204 203 215 214 218 227 228 222 218 214 227 234 224 231 234 236 225 226 223 210 220 216 216 213 218 221 218 221 230 228 226 224 228 225 222 226 231 238 246
285 259 244 227 217 200 208 216 217 220 220 215 213 219 219 222 222 223 226 235 234 237 236 241 228 219 225 223 218 215 216 216 215 232 231 235 247 225 221 231 229 229 232 245
290 253 238 226 214 209 213 218 216 206 212 214 219 218 220 225 227 230 233 229 228 235 238 245 250 250 243 225 214 213 215 213 216 234 225 217 239 241 234 233 234 235 239 244
296 267 240 224 210 202 217 221 212 210 207 217 219 222 224 224 232 235 237 238 227 215 232 241 232 236 231 232 240 236 210 221 226 224 222 240 245 239 228 226 240 236 238 242
322 315 251 217 203 203 214 216 222 217 216 219 219 214 222 229 224 233 235 234 242 251 252 240 228 220 227 220 213 232 234 212 199 194 221 219 243 244 246 239 251 243 242 239
6 346 193 193 196 203 209 213 215 211 214 216 212 221 224 213 217 234 245 242 246 248 249 254 229 217 198 193 198 188 207 221 221 229 233 243 242 245 221 191 243 251 242 241
308 320 258 224 198 207 204 203 203 205 213 217 214 219 229 230 231 233 243 245 247 232 246 251 247 207 223 231 215 208 195 194 204 213 208 243 233 218 203 237 245 246 253 244
36 329 349 223 198 205 207 207 201 200 199 205 205 216 228 237 231 218 222 237 252 235 236 226 244 203 216 223 219 213 199 208 201 213 228 232 226 221 222 227 246 243 245 226
184 215 184 166 205 191 198 188 193 188 203 214 224 229 231 236 239 248 242 247 247 259 224 259 279 243 237 216 216 222 213 226 227 230 240 239 232 215 208 216 222 202 203 206
285 202 206 188 194 196 202 206 205 205 212 219 223 226 230 235 245 250 251 251 252 262 273 266 267 277 297 240 233 226 216 211 212 220 205 197 203 202 196 200 203 200 184 199
348 210 196 198 204 204 211 217 217 217 215 229 233 228 234 240 245 252 255 254 259 261 262 273 271 273 288 269 257 232 220 216 213 219 212 213 226 230 207 238 226 228 194 192
320 272 227 230 232 222 216 219 228 230 228 237 240 229 235 244 249 252 249 250 248 255 258 259 268 270 280 273 255 248 232 229 237 248 249 259 254 249 221 228 217 215 215 212
352 295 221 205 216 215 217 224 235 235 237 236 245 256 248 251 253 251 249 244 242 247 253 253 264 274 268 261 250 243 239 234 237 242 240 224 219 213 220 223 205 203 210 217
9 191 196 211 115 209 210 222 234 221 202 210 231 251 262 262 255 252 245 241 243 252 251 251 255 255 255 256 264 247 240 236 233 232 227 240 243 246 216 197 203 206 216 213
3 25 195 229 258 232 216 217 224 222 213 225 237 242 252 251 264 273 270 263 258 250 243 237 235 238 234 249 238 216 251 257 244 231 230 235 222 228 204 212 219 209 207 206
333 356 35 108 236 242 242 245 223 230 245 228 248 245 245 257 263 259 258 234 224 229 221 225 227 240 243 240 232 246 235 227 224 225 216 209 208 208 207 204 208 212 216 222
335 327 351 4 31 138 176 199 196 211 226 246 256 256 259 259 263 258 243 245 231 233 200 198 194 229 233 232 219 230 219 224 197 188 214 230 209 200 193 197 213 211 217 209
303 295 308 305 276 249 245 210 205 217 233 247 276 272 260 253 254 242 246 245 240 242 183 192 180 217 221 223 230 230 232 214 225 205 202 204 207 210 213 207 203 204 208 196
271 280 281 261 247 238 222 212 224 219 248 281 298 265 228 222 231 236 252 261 259 217 180 170 204 215 225 226 219 220 223 219 211 203 203 204 193 194 198 199 207 197 193 202
252 251 244 246 227 236 229 235 245 247 266 287 269 238 237 222 214 235 249 258 280 298 301 270 240 201 191 198 189 199 203 203 198 197 182 187 190 194 194 192 200 206 213 223
237 245 242 238 249 262 269 257 230 232 241 170 143 192 41 55 42 295 317 325 318 295 345 338 228 186 185 179 187 185 180 167 168 178 184 186 194 202 207 207 210 213 215 219
236 240 250 272 266 271 245 227 210 196 141 160 91 41 359 258 205 233 281 309 323 340 6 105 170 157 156 158 169 171 183 171 193 198 199 201 203 204 206 210 215 219 224 227
229 243 254 256 263 257 213 197 199 215 217 202 197 257 299 322 2 28 50 64 60 78 101 126 128 163 185 191 212 226 226 217 215 206 199 199 206 211 214 216 220 220 221 223